Dewpoint
9 9 8 8 7 7 6 5 3 2 0 -3 -5 -7 -10 -9 -7 -8 -9 -10 -10 -9 -9 -9 -9 -9 -9 -8 -9 -8 -8 -8 -8 -10 -6 -3 0 3 -4 -2 -3 -5 -8
8 9 8 8 7 7 6 5 3 3 1 -2 -5 -6 -8 -8 -7 -6 -8 -9 -10 -9 -9 -9 -9 -9 -8 -8 -8 -8 -8 -8 -8 -8 -8 -4 1 3 -3 -1 -1 -3 -4
7 8 7 7 7 7 6 5 3 3 2 -1 -4 -4 -5 -7 -6 -7 -8 -9 -9 -9 -9 -9 -8 -8 -8 -8 -8 -8 -8 -8 -8 -8 -9 -7 -6 -9 -2 -1 -4 -2 -3
7 8 7 7 7 7 6 6 4 3 2 -1 -3 -4 -7 -7 -7 -7 -7 -9 -9 -9 -9 -8 -8 -8 -8 -8 -8 -8 -8 -8 -8 -8 -9 -9 -6 -5 -5 -5 -5 -3 -6
5 7 7 7 7 7 6 5 4 3 2 -1 -3 -5 -7 -6 -5 -5 -7 -9 -9 -9 -8 -8 -8 -8 -8 -9 -9 -9 -8 -8 -8 -8 -7 -7 -7 -6 -1 -3 -6 -5 -4
5 6 6 4 4 6 6 5 4 3 1 -2 -3 -5 -6 -6 -5 -6 -7 -8 -8 -8 -8 -8 -8 -8 -8 -8 -9 -9 -9 -8 -7 -7 -7 -7 -7 -7 -7 -6 -6 -5 -3
2 2 1 3 4 6 6 5 4 2 -1 -2 -3 -5 -6 -6 -6 -6 -6 -7 -6 -7 -6 -6 -7 -7 -7 -7 -8 -9 -9 -9 -8 -7 -6 -6 -6 -7 -7 -7 -6 -5 -3
-1 0 1 3 4 5 5 4 3 0 -1 -1 -3 -5 -5 -5 -6 -6 -5 -5 -5 -5 -5 -5 -5 -6 -6 -6 -7 -7 -8 -9 -9 -8 -8 -7 -6 -6 -5 -5 -5 -4 -3
2 2 3 3 4 3 3 2 1 0 -0 -1 -2 -4 -5 -5 -5 -4 -4 -5 -5 -4 -4 -4 -4 -4 -5 -5 -5 -6 -6 -7 -7 -6 -5 -5 -4 -4 -5 -4 -3 -3 -5
2 3 3 3 3 2 2 1 1 1 0 -1 -2 -3 -3 -3 -3 -3 -3 -3 -3 -3 -3 -3 -3 -4 -4 -5 -6 -6 -5 -4 -3 -3 -5 -7 -8 -7 -7 -6 -5 -4 -4
3 3 3 3 3 3 3 2 2 1 1 0 -1 -1 -2 -2 -2 -2 -2 -2 -2 -2 -3 -3 -4 -4 -4 -4 -4 -3 -3 -5 -7 -8 -7 -6 -7 -6 -5 -7 -8 -5 -4
3 3 3 3 3 4 3 2 2 1 1 -0 -0 -1 -1 -1 -1 -1 -2 -3 -3 -3 -3 -6 -12 -20 -23 -26 -25 -25 -26 -25 -26 -26 -27 -28 -27 -24 -24 -20 -13 -8 -8
-1 -1 -1 -0 -0 0 0 0 1 1 1 -0 -0 -1 -1 -1 -2 -2 -5 -12 -22 -28 -28 -28 -27 -27 -26 -26 -25 -24 -23 -23 -23 -23 -23 -23 -24 -26 -28 -27 -19 -13 -6
-2 -2 -2 -1 -0 0 0 1 0 -0 -0 -0 -1 -2 -3 -9 -19 -25 -27 -28 -28 -28 -27 -27 -26 -26 -26 -26 -26 -25 -25 -23 -21 -21 -20 -22 -23 -25 -26 -26 -25 -22 -12
-2 -2 -2 -2 -2 -2 -2 -1 -1 -1 -2 -4 -12 -19 -22 -24 -26 -27 -27 -27 -27 -27 -27 -26 -26 -26 -25 -24 -21 -16 -13 -12 -12 -12 -12 -13 -17 -19 -20 -17 -16 -12 -9
-2 -2 -2 -3 -3 -3 -4 -7 -11 -14 -17 -18 -18 -22 -25 -26 -26 -26 -26 -26 -26 -26 -26 -26 -25 -23 -21 -19 -17 -15 -12 -10 -10 -10 -11 -11 -12 -15 -16 -16 -15 -13 -9
-2 -3 -3 -6 -9 -12 -13 -15 -17 -18 -17 -20 -23 -24 -25 -25 -26 -26 -26 -26 -26 -26 -26 -23 -19 -18 -18 -17 -14 -10 -10 -10 -10 -10 -11 -11 -12 -13 -13 -11 -11 -11 -12
-2 -5 -9 -11 -12 -13 -14 -14 -16 -16 -20 -22 -24 -24 -24 -25 -25 -25 -25 -26 -26 -23 -19 -18 -19 -18 -16 -15 -11 -9 -10 -10 -10 -9 -9 -9 -10 -10 -10 -10 -9 -10 -11
-3 -6 -10 -11 -13 -14 -14 -15 -14 -18 -21 -23 -23 -23 -24 -25 -25 -25 -25 -25 -20 -18 -18 -18 -16 -14 -15 -15 -13 -9 -10 -10 -11 -10 -11 -11 -9 -8 -8 -7 -7 -7 -7
-4 -7 -8 -9 -11 -14 -14 -14 -18 -21 -22 -22 -23 -24 -24 -24 -24 -24 -22 -18 -16 -17 -17 -15 -13 -12 -14 -16 -15 -10 -9 -9 -10 -10 -9 -10 -10 -8 -7 -7 -7 -7 -7
-6 -6 -6 -8 -11 -10 -11 -18 -20 -21 -22 -22 -23 -23 -24 -24 -24 -21 -18 -16 -16 -16 -15 -13 -12 -11 -14 -15 -15 -11 -8 -9 -9 -8 -9 -10 -10 -9 -8 -7 -7 -7 -7
-5 -6 -6 -8 -9 -8 -16 -20 -21 -21 -22 -22 -23 -24 -24 -22 -20 -17 -15 -15 -14 -14 -14 -13 -12 -12 -13 -13 -13 -12 -10 -8 -8 -8 -9 -9 -8 -7 -8 -8 -8 -8 -7
-4 -4 -6 -7 -7 -16 -19 -20 -21 -21 -22 -23 -24 -23 -22 -20 -17 -15 -14 -15 -15 -14 -13 -12 -11 -11 -11 -12 -13 -13 -11 -11 -10 -9 -9 -10 -10 -11 -11 -12 -9 -9 -10
-5 -6 -6 -8 -15 -18 -19 -20 -21 -22 -23 -23 -22 -21 -20 -18 -16 -15 -16 -14 -13 -13 -13 -11 -9 -10 -9 -11 -11 -11 -9 -8 -9 -10 -9 -9 -9 -9 -11 -13 -13 -11 -10
-5 -5 -9 -14 -17 -19 -20 -21 -22 -22 -22 -21 -21 -20 -18 -16 -16 -15 -14 -12 -13 -12 -9 -9 -9 -9 -9 -9 -8 -8 -8 -8 -8 -8 -9 -9 -11 -12 -12 -12 -12 -11 -11
-6 -7 -14 -17 -19 -20 -21 -21 -21 -21 -21 -21 -20 -18 -16 -15 -15 -14 -13 -13 -13 -11 -11 -11 -9 -10 -9 -10 -9 -9 -8 -8 -8 -9 -11 -12 -12 -12 -11 -11 -11 -11 -11
Wind_Speed
26 26 24 23 22 21 19 17 18 16 12 9 9 9 9 7 6 5 3 2 2 1 1 3 4 4 5 5 6 7 8 8 9 8 5 3 3 4 10 10 11 9 10
27 29 30 29 26 25 21 18 17 16 13 10 10 10 9 8 6 6 5 3 3 2 2 2 3 4 5 6 7 7 8 8 9 8 4 3 3 4 4 5 7 9 12
31 35 34 31 29 26 23 20 16 16 15 12 10 9 8 7 8 7 6 5 4 4 4 4 4 6 6 6 6 7 8 8 9 8 6 3 2 10 4 5 8 8 11
36 36 35 31 29 26 23 19 18 17 16 12 11 10 10 10 10 8 6 6 5 5 5 5 6 7 7 8 9 9 9 9 8 7 6 6 6 4 5 7 11 10 15
36 39 35 30 28 26 24 21 19 17 15 13 12 12 12 10 8 7 7 6 6 6 6 7 8 8 9 9 9 10 10 10 10 10 9 8 8 8 10 17 18 17 15
33 35 29 24 24 24 23 22 18 17 15 13 11 11 10 10 10 9 8 7 6 6 7 8 9 10 10 11 11 11 12 12 12 12 11 12 12 13 13 18 23 24 24
28 29 24 21 21 23 24 23 20 18 14 12 11 10 10 10 10 8 7 7 7 8 8 8 10 11 12 12 13 13 13 14 14 14 14 14 15 16 18 21 23 25 28
24 23 20 20 20 21 21 21 19 15 12 11 11 10 10 9 8 7 7 7 8 10 11 11 12 12 13 13 14 14 14 15 16 16 17 19 19 20 20 22 23 30 32
21 20 18 17 18 18 19 18 15 13 11 11 10 9 8 8 8 7 7 8 8 9 10 11 12 12 13 13 14 15 15 16 16 17 19 21 21 22 22 23 25 27 32
18 16 15 15 14 15 15 15 13 12 11 10 9 9 8 7 7 7 7 7 7 9 10 10 11 12 14 15 16 17 17 19 20 23 25 25 26 27 26 28 29 30 32
21 19 18 16 15 15 15 15 14 13 11 10 9 8 7 7 7 7 6 6 7 8 9 11 12 13 15 16 18 19 21 24 26 26 28 29 29 31 31 32 33 34 32
18 18 18 17 17 16 15 15 14 13 11 11 10 9 8 7 5 4 4 4 6 7 10 12 13 15 16 18 21 23 24 27 28 28 29 30 30 32 33 34 34 34 35
17 16 16 17 16 16 15 14 14 12 11 11 9 7 5 4 2 1 3 6 8 9 11 13 16 18 21 23 25 27 29 29 31 31 31 32 33 36 38 38 37 37 36
18 18 17 17 17 16 15 15 14 13 11 9 8 7 6 3 2 3 5 8 10 13 15 18 20 22 24 25 27 28 30 31 32 33 33 35 35 37 37 37 36 35 36
23 20 19 18 17 17 17 16 15 13 12 11 8 6 3 2 3 5 8 11 14 18 21 23 24 26 27 28 30 31 33 34 35 35 36 39 37 36 37 35 34 35 36
24 21 19 19 18 17 17 16 15 13 10 7 4 2 1 3 6 10 14 17 20 22 24 26 27 27 27 28 27 26 29 32 34 36 38 40 40 39 37 35 33 30 32
26 23 21 20 18 16 15 14 12 9 5 3 2 1 4 8 12 16 19 21 24 25 26 27 28 28 26 25 25 24 26 30 32 35 38 39 39 38 40 38 33 31 32
26 23 22 19 17 16 14 11 8 6 3 2 1 5 9 13 17 20 23 24 25 26 27 27 26 26 24 24 23 24 25 26 28 30 32 33 35 34 35 35 35 35 35
24 22 21 19 18 14 11 9 6 3 2 2 5 10 15 18 21 23 24 25 26 27 26 25 25 24 24 23 23 23 25 27 28 31 33 32 32 33 31 32 34 34 33
22 24 21 17 15 14 10 7 5 4 3 5 10 14 18 21 23 24 25 26 26 25 24 24 22 22 24 23 23 22 24 27 29 30 32 35 32 28 28 30 31 33 32
23 22 19 16 13 10 7 6 5 4 7 11 15 18 20 23 23 24 25 24 23 23 24 23 23 23 22 23 23 23 23 25 27 30 31 30 28 27 27 27 29 30 29
25 21 17 14 11 8 6 5 6 8 11 15 18 20 22 23 23 24 23 22 23 23 24 25 26 25 22 22 23 24 23 21 25 27 27 27 27 26 26 27 27 26 25
18 15 14 12 9 8 7 7 9 12 15 18 20 21 21 23 23 23 24 25 23 22 23 25 27 27 25 24 22 24 23 25 26 27 27 27 30 30 32 31 26 26 25
16 15 12 10 8 7 7 9 13 15 18 19 21 22 23 23 23 22 22 23 20 23 24 24 27 29 29 27 25 26 29 28 28 28 29 31 31 31 31 31 27 23 22
15 11 9 8 7 8 10 12 15 17 19 21 23 24 24 24 24 22 20 19 21 19 21 23 25 27 29 27 25 26 29 27 24 27 31 34 35 35 31 29 26 24 22
12 11 10 8 7 9 12 14 16 18 21 23 24 24 25 24 23 22 22 21 20 18 19 19 20 23 24 25 23 25 25 23 26 29 33 33 30 29 30 29 29 27 26
Wind_Direction
205 202 203 200 206 211 217 214 209 202 200 199 202 202 209 213 218 227 241 242 254 283 348 10 9 15 8 9 14 12 9 11 14 17 13 360 351 352 354 2 2 356 350
202 198 200 196 207 211 217 215 211 205 200 202 205 206 206 211 217 216 237 242 249 262 287 311 327 335 349 354 353 355 357 358 1 9 1 339 303 329 347 1 346 358 356
208 197 197 196 205 214 217 215 213 205 204 207 213 211 212 219 227 234 237 241 242 252 266 290 316 332 334 327 330 336 342 346 349 355 4 335 318 327 278 280 332 321 335
206 203 199 197 205 211 215 217 210 205 207 208 215 221 222 222 230 232 226 237 246 256 273 296 308 306 309 317 321 324 326 328 330 335 335 325 312 320 300 270 309 300 313
206 201 203 207 205 207 210 215 211 205 205 209 214 215 217 225 229 235 246 249 256 268 281 287 292 301 305 306 307 311 313 313 314 316 316 311 305 288 270 294 302 298 304
201 199 197 199 199 197 204 210 210 210 206 211 217 219 223 227 231 235 241 252 267 275 280 290 294 295 300 302 304 305 306 305 306 307 306 305 305 296 284 289 299 305 308
187 182 184 188 194 195 202 208 210 206 205 208 213 216 219 224 229 236 252 267 274 285 290 290 294 298 300 303 304 305 304 303 302 300 298 296 295 293 294 294 297 299 303
169 178 186 194 195 197 203 204 201 201 203 207 208 212 216 222 233 245 254 261 271 280 291 298 300 300 302 304 305 306 306 304 302 301 300 298 299 298 297 295 299 301 303
163 172 181 191 195 197 194 194 196 199 203 203 208 213 218 223 229 235 247 255 264 274 284 291 297 300 304 305 305 304 304 303 304 304 302 301 299 297 294 291 293 297 295
164 172 179 181 182 181 182 187 196 199 200 203 208 212 215 219 230 241 248 259 273 282 289 295 298 301 304 305 305 306 307 305 305 304 303 302 302 299 297 296 295 294 291
157 161 164 172 177 180 185 188 191 195 194 199 206 212 220 221 225 237 256 274 283 290 298 307 311 311 311 310 307 305 304 302 302 301 300 298 298 295 293 291 288 286 286
162 170 175 177 179 184 185 186 189 195 198 200 201 203 207 213 222 241 272 294 312 320 321 320 320 318 315 311 307 304 301 300 301 302 300 299 297 292 291 290 287 285 285
166 173 174 176 176 179 181 182 182 185 185 192 193 187 180 185 201 324 348 341 334 330 328 326 323 321 317 314 311 310 309 307 305 305 304 303 300 295 293 290 287 285 285
165 166 168 171 174 176 175 176 174 176 174 173 165 153 139 117 54 2 342 335 333 329 325 322 320 318 315 314 312 310 309 308 307 305 305 305 304 301 298 295 292 287 284
167 174 171 165 164 162 161 160 156 155 153 149 140 125 99 43 358 343 335 330 325 323 321 321 319 317 316 317 317 316 315 311 307 305 303 305 307 304 300 297 294 291 289
172 174 172 168 165 162 158 154 150 149 149 139 124 103 56 356 339 332 328 326 324 322 320 317 316 316 314 313 310 310 308 305 303 302 301 303 305 306 306 304 297 292 287
179 180 177 173 167 164 161 158 155 145 142 134 105 33 342 333 329 326 325 323 320 319 318 317 316 315 316 316 315 313 307 306 304 305 306 307 305 304 303 307 304 296 290
177 175 172 170 169 167 164 160 158 158 162 159 304 323 326 325 324 322 321 320 319 319 319 318 320 320 322 325 326 323 315 310 310 312 310 308 306 304 302 302 299 295 292
180 178 179 181 174 173 175 174 177 186 202 281 311 320 321 320 319 319 320 319 319 319 319 321 324 326 328 331 328 326 324 321 315 314 312 316 312 304 300 299 298 296 290
180 177 181 184 180 176 179 189 199 211 256 300 313 314 315 318 319 320 320 319 317 317 320 322 326 327 327 329 329 331 324 322 322 319 316 315 314 309 304 302 299 299 306
173 179 183 182 181 180 192 201 215 258 295 305 310 315 317 317 318 318 317 315 315 316 318 320 323 323 328 329 332 332 327 324 322 316 314 320 322 318 315 313 310 309 309
167 174 178 183 181 194 206 222 254 283 302 310 312 312 315 318 319 317 317 316 315 315 317 318 319 323 327 330 332 334 329 326 316 318 325 324 323 319 316 316 313 309 309
175 181 183 181 194 206 221 252 282 299 304 306 310 315 318 320 319 318 314 313 315 316 316 315 317 321 324 324 325 329 328 328 325 322 322 321 321 320 319 319 315 308 309
177 177 183 193 204 224 261 286 295 300 305 312 316 318 320 320 318 314 314 313 315 316 314 317 318 317 316 318 323 328 328 320 316 318 320 316 313 311 312 314 315 315 311
174 185 196 205 225 256 279 291 302 309 314 316 318 320 320 318 316 314 313 312 313 315 314 311 311 311 311 315 315 313 314 311 312 313 310 311 313 314 316 318 318 316 311
183 192 203 221 252 278 294 304 310 313 314 316 317 318 317 316 315 313 312 311 311 312 311 311 306 306 300 307 308 308 313 317 315 312 310 314 318 319 319 318 317 315 313
Height
1524 1528 1529 1530 1533 1534 1537 1540 1542 1544 1546 1547 1548 1549 1549 1551 1552 1553 1554 1554 1554 1554 1554 1553 1552 1551 1551 1549 1548 1547 1546 1545 1543 1541 1540 1539 1538 1538 1536 1535 1533 1532 1531
1521 1522 1526 1524 1529 1531 1534 1537 1539 1542 1544 1546 1546 1547 1548 1548 1550 1551 1552 1553 1553 1553 1553 1552 1551 1551 1550 1549 1548 1547 1545 1544 1542 1541 1539 1538 1539 1537 1536 1535 1534 1532 1530
1516 1516 1518 1519 1523 1527 1531 1534 1537 1540 1542 1543 1544 1545 1545 1546 1548 1549 1550 1551 1551 1551 1551 1551 1551 1550 1549 1548 1547 1546 1544 1543 1542 1540 1540 1538 1537 1535 1534 1533 1532 1530 1528
1511 1515 1515 1516 1520 1524 1528 1532 1535 1537 1539 1541 1543 1544 1544 1544 1546 1547 1548 1549 1549 1550 1550 1550 1549 1548 1548 1547 1546 1545 1543 1542 1541 1540 1539 1538 1537 1535 1533 1532 1531 1529 1528
1503 1507 1510 1515 1519 1521 1524 1529 1533 1535 1537 1539 1540 1541 1541 1543 1544 1545 1546 1547 1547 1548 1548 1548 1547 1547 1546 1545 1545 1543 1542 1541 1540 1538 1537 1537 1535 1534 1532 1528 1526 1526 1525
1500 1504 1510 1514 1517 1519 1523 1527 1531 1533 1535 1536 1538 1539 1540 1541 1542 1544 1544 1545 1546 1546 1546 1545 1545 1545 1544 1543 1542 1541 1540 1539 1538 1537 1536 1534 1533 1531 1530 1526 1523 1520 1519
1496 1502 1507 1512 1515 1517 1522 1526 1528 1531 1533 1534 1536 1537 1538 1540 1541 1542 1542 1543 1543 1543 1543 1543 1543 1542 1541 1541 1540 1539 1537 1536 1535 1534 1533 1532 1531 1528 1526 1523 1519 1515 1513
1498 1502 1506 1510 1513 1516 1520 1524 1527 1529 1531 1533 1534 1535 1536 1538 1539 1539 1540 1540 1541 1541 1541 1541 1540 1540 1539 1538 1537 1536 1534 1533 1532 1531 1530 1528 1527 1526 1524 1521 1517 1511 1507
1500 1503 1507 1509 1511 1515 1519 1523 1526 1528 1529 1530 1532 1533 1535 1536 1536 1537 1538 1538 1538 1539 1539 1538 1537 1536 1535 1534 1533 1532 1531 1529 1528 1527 1525 1523 1522 1520 1518 1516 1513 1510 1502
1500 1503 1505 1508 1512 1515 1519 1521 1524 1525 1527 1528 1530 1531 1532 1533 1534 1535 1535 1535 1536 1536 1536 1535 1534 1534 1533 1532 1530 1529 1528 1526 1524 1522 1520 1519 1517 1515 1513 1510 1508 1505 1501
1500 1503 1506 1509 1512 1515 1517 1519 1521 1523 1525 1527 1528 1529 1530 1531 1531 1532 1533 1534 1534 1533 1533 1533 1532 1531 1530 1528 1527 1525 1523 1521 1519 1517 1514 1512 1510 1507 1505 1503 1500 1497 1495
1501 1504 1507 1509 1511 1513 1516 1518 1520 1522 1523 1525 1526 1527 1528 1529 1530 1531 1531 1532 1532 1532 1531 1530 1529 1528 1526 1525 1523 1520 1519 1516 1513 1511 1508 1505 1503 1500 1498 1495 1491 1489 1487
1502 1504 1506 1508 1510 1512 1514 1516 1518 1520 1522 1523 1525 1526 1527 1528 1529 1530 1530 1530 1530 1529 1528 1527 1525 1524 1522 1520 1518 1515 1512 1509 1506 1503 1500 1497 1495 1490 1487 1485 1481 1479 1477
1501 1504 1506 1508 1510 1512 1514 1515 1517 1519 1521 1522 1524 1525 1526 1527 1528 1528 1527 1527 1526 1525 1524 1522 1520 1518 1516 1513 1510 1508 1504 1501 1499 1497 1494 1490 1486 1482 1478 1475 1472 1469 1467
1500 1502 1505 1507 1509 1511 1512 1514 1517 1518 1520 1522 1523 1524 1525 1525 1526 1525 1525 1524 1522 1520 1518 1516 1513 1511 1507 1504 1501 1498 1495 1492 1489 1488 1485 1482 1479 1474 1470 1467 1463 1461 1458
1499 1502 1504 1506 1508 1510 1512 1514 1516 1518 1521 1522 1523 1523 1524 1524 1523 1522 1521 1519 1517 1515 1513 1510 1507 1504 1501 1498 1494 1491 1488 1484 1481 1478 1475 1472 1469 1465 1462 1459 1456 1454 1451
1494 1498 1502 1505 1508 1510 1512 1514 1516 1519 1520 1521 1522 1522 1522 1521 1520 1518 1516 1514 1511 1509 1506 1503 1500 1496 1493 1490 1487 1484 1480 1477 1474 1470 1467 1463 1460 1458 1453 1450 1447 1444 1442
1494 1498 1502 1505 1508 1510 1513 1514 1516 1518 1519 1519 1520 1519 1518 1517 1515 1513 1511 1508 1505 1502 1499 1496 1493 1490 1487 1484 1480 1477 1473 1469 1465 1463 1459 1456 1452 1450 1447 1442 1437 1434 1431
1494 1498 1501 1504 1507 1510 1512 1513 1515 1516 1517 1517 1517 1516 1515 1513 1510 1508 1506 1502 1498 1495 1492 1489 1486 1483 1480 1477 1475 1471 1465 1461 1458 1455 1452 1450 1445 1442 1439 1435 1429 1425 1422
1492 1496 1500 1503 1507 1509 1511 1512 1513 1514 1515 1514 1513 1512 1511 1508 1505 1502 1499 1496 1493 1489 1486 1483 1481 1477 1475 1472 1468 1465 1461 1455 1451 1449 1446 1443 1439 1436 1431 1428 1423 1419 1415
1491 1495 1499 1502 1506 1508 1509 1511 1511 1512 1512 1512 1511 1508 1505 1502 1499 1496 1493 1489 1486 1483 1480 1477 1474 1472 1470 1466 1462 1459 1455 1452 1447 1444 1440 1437 1433 1429 1425 1422 1418 1413 1409
1491 1495 1499 1502 1505 1506 1507 1508 1509 1509 1508 1507 1505 1504 1501 1498 1494 1491 1488 1484 1480 1477 1473 1470 1467 1466 1464 1462 1458 1454 1451 1447 1444 1439 1435 1431 1427 1424 1420 1416 1412 1408 1405
1492 1495 1498 1501 1503 1504 1505 1506 1506 1505 1504 1503 1500 1496 1494 1492 1489 1485 1484 1480 1476 1471 1467 1465 1461 1458 1457 1456 1453 1449 1445 1442 1438 1435 1431 1427 1423 1418 1414 1410 1407 1403 1398
1491 1495 1497 1499 1500 1502 1502 1503 1502 1501 1499 1497 1495 1491 1488 1484 1482 1479 1477 1475 1472 1468 1463 1459 1456 1453 1451 1450 1447 1442 1438 1436 1432 1429 1425 1421 1417 1413 1409 1403 1399 1396 1393
1489 1492 1495 1497 1498 1499 1499 1498 1497 1495 1493 1491 1489 1486 1482 1479 1476 1474 1471 1470 1468 1465 1461 1457 1453 1450 1446 1444 1442 1439 1434 1430 1427 1424 1418 1413 1409 1404 1399 1396 1392 1389 1387
1487 1489 1491 1493 1495 1495 1495 1494 1491 1489 1488 1486 1483 1480 1476 1474 1471 1468 1465 1465 1462 1459 1457 1453 1450 1446 1442 1439 1436 1433 1429 1425 1422 1417 1412 1406 1402 1398 1393 1390 1386 1383 1380